nws-alerts: Checking more than four warning/county codes can delay the loading of your pages. You should use a cron job to get the data.
EllijayWeather Station Historical Data
Daily Summary for October 13, 2018 Units:  English    Metric   Both
Daily Weekly Monthly Yearly Custom
  High: Low: Average:
Temperature: 65.3 °F 49.3 °F 56.1 °F
Dew Point: 55.6 °F 38.7 °F 46.4 °F
Humidity: 79% 65% 70%
Wind Speed: 10.1mph 0mph 0.2mph
Wind Gust: 10mph - -
Wind- - WSW
Pressure: 30.10 in 29.93 in -
Precipitation: 0 in    
Historical Graphs
 
 
Tabular Data for October 13, 2018
Time Temperature Dew Point Pressure Wind Wind Speed Wind Gust Humidity Rainfall Rate (Hourly) solar
00:04 51.1 °F 40.5 °F 29.97 in Calm     67% 0 in meteobridge W/m2
00:09 51.1 °F 40.5 °F 29.96 in Calm     67% 0 in meteobridge W/m2
00:14 51.3 °F 40.6 °F 29.96 in Calm     67% 0 in meteobridge W/m2
00:19 51.3 °F 40.6 °F 29.95 in Calm     67% 0 in meteobridge W/m2
00:24 51.3 °F 40.6 °F 29.96 in Calm     67% 0 in meteobridge W/m2
00:29 51.3 °F 40.6 °F 29.95 in Calm     67% 0 in meteobridge W/m2
00:34 51.4 °F 40.8 °F 29.94 in Calm     67% 0 in meteobridge W/m2
00:39 51.4 °F 40.8 °F 29.94 in Calm     67% 0 in meteobridge W/m2
00:44 51.4 °F 40.8 °F 29.94 in Calm     67% 0 in meteobridge W/m2
00:49 51.6 °F 40.6 °F 29.94 in Calm     66% 0 in meteobridge W/m2
00:54 51.6 °F 40.6 °F 29.93 in Calm     66% 0 in meteobridge W/m2
00:59 51.6 °F 40.6 °F 29.93 in Calm     66% 0 in meteobridge W/m2
01:04 51.8 °F 40.8 °F 29.93 in Calm     66% 0 in meteobridge W/m2
01:09 51.8 °F 40.8 °F 29.94 in Calm     66% 0 in meteobridge W/m2
01:14 51.8 °F 41.2 °F 29.93 in Calm     67% 0 in meteobridge W/m2
01:19 51.8 °F 41.2 °F 29.93 in Calm     67% 0 in meteobridge W/m2
01:24 52 °F 41.4 °F 29.93 in Calm     67% 0 in meteobridge W/m2
01:29 52 °F 41.4 °F 29.93 in Calm     67% 0 in meteobridge W/m2
01:34 52 °F 41.4 °F 29.93 in Calm     67% 0 in meteobridge W/m2
01:39 52 °F 41.4 °F 29.93 in Calm     67% 0 in meteobridge W/m2
01:44 52.2 °F 41.5 °F 29.93 in Calm     67% 0 in meteobridge W/m2
01:49 52.2 °F 41.5 °F 29.94 in Calm     67% 0 in meteobridge W/m2
01:54 52.2 °F 41.5 °F 29.94 in Calm     67% 0 in meteobridge W/m2
01:59 52.2 °F 41.5 °F 29.95 in Calm     67% 0 in meteobridge W/m2
02:04 52.3 °F 41.7 °F 29.95 in Calm     67% 0 in meteobridge W/m2
02:09 52.2 °F 41.5 °F 29.96 in Calm     67% 0 in meteobridge W/m2
02:14 52.3 °F 41.7 °F 29.96 in Calm   1 mph 67% 0 in meteobridge W/m2
02:19 52.3 °F 41.7 °F 29.96 in Calm     67% 0 in meteobridge W/m2
02:24 52.3 °F 41.7 °F 29.96 in Calm   1 mph 67% 0 in meteobridge W/m2
02:29 52.3 °F 41.7 °F 29.96 in Calm     67% 0 in meteobridge W/m2
02:34 52.5 °F 41.9 °F 29.96 in Calm     67% 0 in meteobridge W/m2
02:39 52.5 °F 41.9 °F 29.96 in Calm     67% 0 in meteobridge W/m2
02:44 52.5 °F 41.9 °F 29.96 in Calm     67% 0 in meteobridge W/m2
02:49 52.5 °F 41.9 °F 29.96 in Calm     67% 0 in meteobridge W/m2
02:54 52.7 °F 42.1 °F 29.97 in Calm     67% 0 in meteobridge W/m2
02:59 52.7 °F 42.1 °F 29.97 in Calm     67% 0 in meteobridge W/m2
03:04 52.7 °F 42.1 °F 29.96 in Calm     67% 0 in meteobridge W/m2
03:09 52.7 °F 42.1 °F 29.97 in Calm     67% 0 in meteobridge W/m2
03:14 52.9 °F 42.3 °F 29.96 in Calm     67% 0 in meteobridge W/m2
03:19 52.9 °F 42.3 °F 29.97 in Calm     67% 0 in meteobridge W/m2
03:24 52.9 °F 42.3 °F 29.96 in Calm     67% 0 in meteobridge W/m2
03:29 52.9 °F 42.3 °F 29.96 in Calm     67% 0 in meteobridge W/m2
03:34 53.1 °F 42.4 °F 29.96 in Calm     67% 0 in meteobridge W/m2
03:39 53.1 °F 42.4 °F 29.96 in Calm     67% 0 in meteobridge W/m2
03:44 53.1 °F 42.4 °F 29.96 in Calm     67% 0 in meteobridge W/m2
03:49 53.1 °F 42.1 °F 29.96 in Calm     66% 0 in meteobridge W/m2
03:54 53.1 °F 42.1 °F 29.96 in Calm     66% 0 in meteobridge W/m2
03:58 53.2 °F 42.3 °F 29.96 in Calm     66% 0 in meteobridge W/m2
04:04 53.1 °F 42.4 °F 29.96 in Calm     67% 0 in meteobridge W/m2
04:09 53.1 °F 42.1 °F 29.96 in Calm     66% 0 in meteobridge W/m2
04:14 53.2 °F 42.3 °F 29.95 in Calm     66% 0 in meteobridge W/m2
04:19 53.2 °F 42.3 °F 29.95 in Calm     66% 0 in meteobridge W/m2
04:24 53.2 °F 42.3 °F 29.96 in Calm     66% 0 in meteobridge W/m2
04:29 53.2 °F 42.3 °F 29.96 in Calm     66% 0 in meteobridge W/m2
04:34 53.2 °F 42.3 °F 29.96 in Calm     66% 0 in meteobridge W/m2
04:39 53.2 °F 42.3 °F 29.96 in Calm     66% 0 in meteobridge W/m2
04:44 53.2 °F 42.3 °F 29.96 in Calm     66% 0 in meteobridge W/m2
04:49 53.4 °F 42.3 °F 29.96 in Calm     66% 0 in meteobridge W/m2
04:54 53.2 °F 42.3 °F 29.96 in Calm     66% 0 in meteobridge W/m2
04:59 53.4 °F 42.3 °F 29.96 in Calm     66% 0 in meteobridge W/m2
05:04 53.2 °F 42.3 °F 29.96 in Calm     66% 0 in meteobridge W/m2
05:09 53.2 °F 42.6 °F 29.96 in Calm     67% 0 in meteobridge W/m2
05:14 53.2 °F 42.6 °F 29.96 in Calm     67% 0 in meteobridge W/m2
05:19 53.1 °F 42.8 °F 29.96 in Calm     68% 0 in meteobridge W/m2
05:24 53.1 °F 42.8 °F 29.96 in Calm     68% 0 in meteobridge W/m2
05:29 52.9 °F 42.6 °F 29.96 in Calm     68% 0 in meteobridge W/m2
05:34 52.9 °F 42.6 °F 29.96 in Calm     68% 0 in meteobridge W/m2
05:38 53.1 °F 42.4 °F 29.96 in Calm     67% 0 in meteobridge W/m2
05:44 53.1 °F 42.4 °F 29.97 in Calm     67% 0 in meteobridge W/m2
05:49 53.1 °F 42.4 °F 29.97 in Calm     67% 0 in meteobridge W/m2
05:54 53.1 °F 42.4 °F 29.97 in Calm     67% 0 in meteobridge W/m2
05:59 52.9 °F 42.6 °F 29.97 in Calm     68% 0 in meteobridge W/m2
06:04 52.7 °F 42.8 °F 29.97 in Calm     69% 0 in meteobridge W/m2
06:09 52.3 °F 42.8 °F 29.98 in Calm     70% 0 in meteobridge W/m2
06:14 52.3 °F 42.8 °F 29.98 in Calm     70% 0 in meteobridge W/m2
06:19 52.2 °F 42.3 °F 29.98 in Calm     69% 0 in meteobridge W/m2
06:24 52.2 °F 42.3 °F 29.98 in Calm     69% 0 in meteobridge W/m2
06:29 52 °F 42.1 °F 29.98 in Calm     69% 0 in meteobridge W/m2
06:34 51.8 °F 41.9 °F 29.98 in Calm     69% 0 in meteobridge W/m2
06:39 51.6 °F 41.4 °F 29.98 in Calm     68% 0 in meteobridge W/m2
06:44 51.6 °F 41.4 °F 29.98 in Calm     68% 0 in meteobridge W/m2
06:49 51.4 °F 41.2 °F 29.98 in Calm     68% 0 in meteobridge W/m2
06:54 51.3 °F 41 °F 29.98 in Calm     68% 0 in meteobridge W/m2
06:59 51.1 °F 40.8 °F 29.98 in Calm     68% 0 in meteobridge W/m2
07:04 50.9 °F 40.6 °F 29.98 in Calm     68% 0 in meteobridge W/m2
07:09 50.7 °F 40.5 °F 29.98 in Calm     68% 0 in meteobridge W/m2
07:14 50.7 °F 40.5 °F 29.98 in Calm     68% 0 in meteobridge W/m2
07:19 50.5 °F 40.5 °F 29.99 in Calm     68% 0 in meteobridge W/m2
07:24 50.4 °F 40.3 °F 29.98 in Calm     68% 0 in meteobridge W/m2
07:29 50.2 °F 40.1 °F 29.99 in Calm     68% 0 in meteobridge W/m2
07:34 49.8 °F 39.7 °F 29.99 in Calm     68% 0 in meteobridge W/m2
07:39 49.8 °F 39.7 °F 29.99 in Calm     68% 0 in meteobridge W/m2
07:44 49.6 °F 39.6 °F 29.99 in Calm     68% 0 in meteobridge W/m2
07:49 49.6 °F 39.2 °F 29.99 in Calm     67% 0 in meteobridge W/m2
07:54 49.6 °F 39.2 °F 29.99 in Calm     67% 0 in meteobridge W/m2
07:59 49.5 °F 39 °F 29.99 in Calm     67% 0 in meteobridge W/m2
08:04 49.5 °F 39 °F 30.00 in Calm     67% 0 in meteobridge W/m2
08:09 49.3 °F 38.8 °F 30.00 in Calm     67% 0 in meteobridge W/m2
08:14 49.3 °F 38.8 °F 30.00 in Calm     67% 0 in meteobridge W/m2
08:19 49.3 °F 38.8 °F 30.00 in Calm     67% 0 in meteobridge W/m2
08:24 49.3 °F 38.8 °F 30.00 in Calm     67% 0 in meteobridge W/m2
08:29 49.5 °F 38.7 °F 30.00 in Calm     66% 0 in meteobridge W/m2
08:34 49.6 °F 38.7 °F 30.00 in Calm   1 mph 66% 0 in meteobridge W/m2
08:39 50 °F 39.6 °F 30.00 in Calm   2 mph 67% 0 in meteobridge W/m2
08:44 50.4 °F 40.3 °F 30.01 in Calm   3 mph 68% 0 in meteobridge W/m2
08:49 50.5 °F 41.2 °F 30.01 in WNW 2 mph 3 mph 70% 0 in meteobridge W/m2
08:54 51.3 °F 43 °F 30.01 in Calm   5 mph 73% 0 in meteobridge W/m2
08:59 51.6 °F 43.9 °F 30.01 in NW 2 mph 3 mph 75% 0 in meteobridge W/m2
09:04 52 °F 45 °F 30.01 in NNE 2 mph 5 mph 77% 0 in meteobridge W/m2
09:09 52.3 °F 45.7 °F 30.01 in Calm   2 mph 78% 0 in meteobridge W/m2
09:14 52.7 °F 46.4 °F 30.01 in Calm   6 mph 79% 0 in meteobridge W/m2
09:19 53.1 °F 46.8 °F 30.02 in Calm   1 mph 79% 0 in meteobridge W/m2
09:24 53.4 °F 47.1 °F 30.01 in West 4 mph 7 mph 79% 0 in meteobridge W/m2
09:29 54 °F 47.7 °F 30.01 in Calm   4 mph 79% 0 in meteobridge W/m2
09:34 54.1 °F 47.8 °F 30.01 in Calm   1 mph 79% 0 in meteobridge W/m2
09:39 54.3 °F 48 °F 30.01 in NW 10.1 mph 10 mph 79% 0 in meteobridge W/m2
09:44 54.9 °F 48.6 °F 30.01 in Calm   5 mph 79% 0 in meteobridge W/m2
09:49 55 °F 48.4 °F 30.02 in Calm   3 mph 78% 0 in meteobridge W/m2
09:54 55.2 °F 48.7 °F 30.02 in NNW 6.9 mph 7 mph 79% 0 in meteobridge W/m2
09:59 55.4 °F 48.7 °F 30.02 in Calm   3 mph 78% 0 in meteobridge W/m2
10:04 55.6 °F 48.9 °F 30.02 in Calm   6 mph 78% 0 in meteobridge W/m2
10:09 55.8 °F 48.9 °F 30.02 in Calm   3 mph 78% 0 in meteobridge W/m2
10:14 55.9 °F 49.1 °F 30.02 in Calm   5 mph 78% 0 in meteobridge W/m2
10:19 56.3 °F 49.1 °F 30.02 in NNE 0.9 mph 5 mph 77% 0 in meteobridge W/m2
10:24 56.5 °F 49.3 °F 30.03 in NNW 0.9 mph 6 mph 77% 0 in meteobridge W/m2
10:29 56.7 °F 49.5 °F 30.03 in Calm   4 mph 77% 0 in meteobridge W/m2
10:34 56.7 °F 49.5 °F 30.03 in NW 4 mph 6 mph 77% 0 in meteobridge W/m2
10:39 56.8 °F 49.3 °F 30.03 in Calm   1 mph 76% 0 in meteobridge W/m2
10:44 57 °F 49.8 °F 30.03 in Calm   1 mph 77% 0 in meteobridge W/m2
10:49 57 °F 49.5 °F 30.04 in Calm   4 mph 76% 0 in meteobridge W/m2
10:54 57 °F 49.5 °F 30.04 in Calm   4 mph 76% 0 in meteobridge W/m2
10:59 57.4 °F 49.8 °F 30.04 in Calm     76% 0 in meteobridge W/m2
11:04 57.7 °F 50.2 °F 30.05 in Calm   1 mph 76% 0 in meteobridge W/m2
11:09 58.1 °F 50.2 °F 30.05 in Calm   1 mph 75% 0 in meteobridge W/m2
11:14 58.5 °F 50.2 °F 30.05 in West 2.9 mph 8 mph 74% 0 in meteobridge W/m2
11:19 58.5 °F 50.2 °F 30.05 in ENE 2 mph 4 mph 74% 0 in meteobridge W/m2
11:24 58.8 °F 50.5 °F 30.05 in Calm   3 mph 74% 0 in meteobridge W/m2
11:29 59 °F 50.7 °F 30.04 in Calm   2 mph 74% 0 in meteobridge W/m2
11:34 59 °F 50.4 °F 30.05 in Calm     73% 0 in meteobridge W/m2
11:39 59.2 °F 50.5 °F 30.05 in NW 0.9 mph 5 mph 73% 0 in meteobridge W/m2
11:44 59.2 °F 50.5 °F 30.05 in Calm   4 mph 73% 0 in meteobridge W/m2
11:49 59.2 °F 50.5 °F 30.05 in Calm   1 mph 73% 0 in meteobridge W/m2
11:54 59.4 °F 50.7 °F 30.05 in WNW 0.9 mph 3 mph 73% 0 in meteobridge W/m2
11:59 59.5 °F 50.9 °F 30.05 in Calm   2 mph 73% 0 in meteobridge W/m2
12:04 59.5 °F 50.5 °F 30.04 in Calm   3 mph 72% 0 in meteobridge W/m2
12:09 59.9 °F 51.3 °F 30.04 in Calm   3 mph 73% 0 in meteobridge W/m2
12:14 60.1 °F 51.4 °F 30.04 in Calm   2 mph 73% 0 in meteobridge W/m2
12:19 60.1 °F 50.7 °F 30.04 in Calm     71% 0 in meteobridge W/m2
12:24 60.1 °F 51.1 °F 30.03 in Calm   2 mph 72% 0 in meteobridge W/m2
12:29 60.3 °F 50.9 °F 30.04 in Calm   4 mph 71% 0 in meteobridge W/m2
12:34 60.4 °F 51.8 °F 30.04 in Calm   1 mph 73% 0 in meteobridge W/m2
12:39 60.6 °F 51.6 °F 30.04 in WNW 2.9 mph 3 mph 72% 0 in meteobridge W/m2
12:44 61 °F 51.4 °F 30.04 in NW 2.9 mph 4 mph 71% 0 in meteobridge W/m2
12:49 61.2 °F 51.6 °F 30.04 in Calm   3 mph 71% 0 in meteobridge W/m2
12:54 61.2 °F 51.3 °F 30.04 in Calm   1 mph 70% 0 in meteobridge W/m2
12:59 61.3 °F 51.4 °F 30.04 in NW 4.9 mph 5 mph 70% 0 in meteobridge W/m2
13:04 61.7 °F 52.2 °F 30.04 in Calm     71% 0 in meteobridge W/m2
13:09 61.9 °F 52 °F 30.04 in East 2 mph 4 mph 70% 0 in meteobridge W/m2
13:14 61.9 °F 51.6 °F 30.03 in Calm   1 mph 69% 0 in meteobridge W/m2
13:19 61.9 °F 52 °F 30.03 in Calm   3 mph 70% 0 in meteobridge W/m2
13:24 62.1 °F 52.5 °F 30.04 in NW 2 mph 4 mph 71% 0 in meteobridge W/m2
13:29 62.2 °F 52 °F 30.04 in Calm   3 mph 69% 0 in meteobridge W/m2
13:34 62.2 °F 51.6 °F 30.03 in Calm     68% 0 in meteobridge W/m2
13:39 62.4 °F 52.2 °F 30.03 in Calm   4 mph 69% 0 in meteobridge W/m2
13:44 62.6 °F 52 °F 30.03 in Calm   3 mph 68% 0 in meteobridge W/m2
13:49 63 °F 52.2 °F 30.03 in Calm   5 mph 68% 0 in meteobridge W/m2
13:54 63.1 °F 52 °F 30.03 in NNW 0.9 mph 6 mph 67% 0 in meteobridge W/m2
13:59 63.3 °F 53.1 °F 30.03 in Calm   1 mph 69% 0 in meteobridge W/m2
14:04 63.3 °F 52.5 °F 30.03 in Calm   5 mph 68% 0 in meteobridge W/m2
14:09 63.5 °F 52.7 °F 30.02 in Calm     68% 0 in meteobridge W/m2
14:14 63.7 °F 52.5 °F 30.02 in Calm   3 mph 67% 0 in meteobridge W/m2
14:19 63.9 °F 52.7 °F 30.02 in Calm   1 mph 67% 0 in meteobridge W/m2
14:24 64 °F 53.2 °F 30.01 in Calm   1 mph 68% 0 in meteobridge W/m2
14:29 64 °F 52.9 °F 30.01 in Calm   1 mph 67% 0 in meteobridge W/m2
14:34 64.2 °F 52.7 °F 30.01 in Calm   3 mph 66% 0 in meteobridge W/m2
14:39 64.6 °F 52.9 °F 30.01 in Calm   5 mph 66% 0 in meteobridge W/m2
14:44 64.8 °F 53.6 °F 30.01 in Calm   5 mph 67% 0 in meteobridge W/m2
14:49 64.9 °F 53.8 °F 30.00 in Calm     67% 0 in meteobridge W/m2
14:54 65.1 °F 54 °F 30.00 in Calm     67% 0 in meteobridge W/m2
14:59 65.3 °F 53.6 °F 30.00 in Calm     66% 0 in meteobridge W/m2
15:04 65.1 °F 53.4 °F 29.99 in Calm   2 mph 66% 0 in meteobridge W/m2
15:09 65.1 °F 54 °F 29.99 in Calm   3 mph 67% 0 in meteobridge W/m2
15:14 65.3 °F 54.5 °F 29.99 in Calm     68% 0 in meteobridge W/m2
15:19 65.1 °F 54.3 °F 29.99 in Calm   2 mph 68% 0 in meteobridge W/m2
15:24 64.9 °F 53.8 °F 29.99 in Calm     67% 0 in meteobridge W/m2
15:29 64.9 °F 53.8 °F 29.99 in Calm     67% 0 in meteobridge W/m2
15:34 64.9 °F 53.8 °F 29.99 in Calm     67% 0 in meteobridge W/m2
15:39 64.9 °F 54.1 °F 29.99 in Calm   1 mph 68% 0 in meteobridge W/m2
15:44 64.9 °F 53.8 °F 30.00 in Calm     67% 0 in meteobridge W/m2
15:49 64.9 °F 54.5 °F 30.00 in Calm   1 mph 69% 0 in meteobridge W/m2
15:54 65.1 °F 54.7 °F 30.00 in Calm   1 mph 69% 0 in meteobridge W/m2
15:59 64.9 °F 53.8 °F 30.00 in Calm   1 mph 67% 0 in meteobridge W/m2
16:04 65.1 °F 54.3 °F 30.00 in Calm     68% 0 in meteobridge W/m2
16:09 65.1 °F 54.3 °F 30.00 in Calm   1 mph 68% 0 in meteobridge W/m2
16:14 65.3 °F 54.9 °F 30.00 in WNW 2.9 mph 3 mph 69% 0 in meteobridge W/m2
16:19 65.1 °F 54.3 °F 30.00 in Calm   2 mph 68% 0 in meteobridge W/m2
16:24 65.1 °F 54.3 °F 29.99 in Calm   1 mph 68% 0 in meteobridge W/m2
16:29 65.1 °F 54.7 °F 30.00 in Calm     69% 0 in meteobridge W/m2
16:34 64.9 °F 54.1 °F 30.00 in Calm   3 mph 68% 0 in meteobridge W/m2
16:39 64.9 °F 54.5 °F 30.00 in Calm     69% 0 in meteobridge W/m2
16:44 64.9 °F 54.1 °F 29.99 in Calm     68% 0 in meteobridge W/m2
16:49 64.9 °F 54.1 °F 29.99 in Calm   1 mph 68% 0 in meteobridge W/m2
16:54 64.9 °F 54.5 °F 30.00 in Calm     69% 0 in meteobridge W/m2
16:59 64.8 °F 54.7 °F 29.99 in Calm     70% 0 in meteobridge W/m2
17:04 64.8 °F 54.3 °F 29.99 in Calm     69% 0 in meteobridge W/m2
17:09 64.6 °F 55.4 °F 30.00 in Calm     72% 0 in meteobridge W/m2
17:14 64.4 °F 54.3 °F 30.00 in Calm     70% 0 in meteobridge W/m2
17:19 64.2 °F 55.4 °F 30.01 in Calm     73% 0 in meteobridge W/m2
17:24 64.2 °F 55 °F 30.01 in Calm     72% 0 in meteobridge W/m2
17:29 64 °F 55.2 °F 30.01 in Calm   1 mph 73% 0 in meteobridge W/m2
17:34 64 °F 55.6 °F 30.01 in Calm     74% 0 in meteobridge W/m2
17:39 63.9 °F 55 °F 30.01 in North 2 mph 2 mph 73% 0 in meteobridge W/m2
17:44 63.7 °F 55.2 °F 30.01 in Calm     74% 0 in meteobridge W/m2
17:49 63.3 °F 54.5 °F 30.01 in Calm     73% 0 in meteobridge W/m2
17:54 63.1 °F 54.3 °F 30.01 in Calm     73% 0 in meteobridge W/m2
17:59 63 °F 54.5 °F 30.01 in Calm     74% 0 in meteobridge W/m2
18:04 62.8 °F 54.7 °F 30.01 in Calm     75% 0 in meteobridge W/m2
18:09 62.4 °F 54.7 °F 30.01 in Calm   2 mph 76% 0 in meteobridge W/m2
18:14 62.2 °F 54.9 °F 30.01 in Calm     77% 0 in meteobridge W/m2
18:19 61.9 °F 54.3 °F 30.01 in Calm     76% 0 in meteobridge W/m2
18:24 61.5 °F 53.6 °F 30.02 in Calm     75% 0 in meteobridge W/m2
18:29 61.3 °F 53.8 °F 30.02 in Calm     76% 0 in meteobridge W/m2
18:33 61.2 °F 53.6 °F 30.02 in Calm     76% 0 in meteobridge W/m2
18:39 60.8 °F 53.2 °F 30.02 in Calm     76% 0 in meteobridge W/m2
18:44 60.4 °F 53.2 °F 30.02 in Calm     77% 0 in meteobridge W/m2
18:49 60.1 °F 52.9 °F 30.02 in Calm     77% 0 in meteobridge W/m2
18:54 59.7 °F 52.5 °F 30.02 in Calm     77% 0 in meteobridge W/m2
18:59 59.5 °F 52.3 °F 30.02 in Calm     77% 0 in meteobridge W/m2
19:04 59.2 °F 52.3 °F 30.02 in Calm     78% 0 in meteobridge W/m2
19:09 58.8 °F 52 °F 30.02 in Calm     78% 0 in meteobridge W/m2
19:14 58.5 °F 51.6 °F 30.02 in Calm     78% 0 in meteobridge W/m2
19:19 58.3 °F 51.4 °F 30.03 in Calm     78% 0 in meteobridge W/m2
19:24 57.7 °F 50.9 °F 30.03 in Calm     78% 0 in meteobridge W/m2
19:29 57.6 °F 50.7 °F 30.03 in Calm     78% 0 in meteobridge W/m2
19:34 57.2 °F 50.4 °F 30.03 in Calm     78% 0 in meteobridge W/m2
19:39 56.8 °F 50 °F 30.04 in Calm     78% 0 in meteobridge W/m2
19:44 56.7 °F 49.5 °F 30.03 in Calm     77% 0 in meteobridge W/m2
19:49 56.3 °F 49.1 °F 30.04 in Calm     77% 0 in meteobridge W/m2
19:54 55.9 °F 48.9 °F 30.04 in Calm     77% 0 in meteobridge W/m2
19:59 55.8 °F 48.4 °F 30.04 in Calm     76% 0 in meteobridge W/m2
20:04 55.6 °F 48.2 °F 30.04 in Calm     76% 0 in meteobridge W/m2
20:09 55.2 °F 47.5 °F 30.04 in Calm     75% 0 in meteobridge W/m2
20:14 55 °F 47.3 °F 30.05 in Calm     75% 0 in meteobridge W/m2
20:19 54.9 °F 46.8 °F 30.05 in Calm     74% 0 in meteobridge W/m2
20:24 54.7 °F 46.6 °F 30.05 in Calm     74% 0 in meteobridge W/m2
20:29 54.5 °F 46.4 °F 30.05 in Calm     74% 0 in meteobridge W/m2
20:34 54.1 °F 45.7 °F 30.05 in Calm     73% 0 in meteobridge W/m2
20:39 54 °F 45.5 °F 30.06 in Calm     73% 0 in meteobridge W/m2
20:44 53.8 °F 45 °F 30.06 in Calm     72% 0 in meteobridge W/m2
20:49 53.6 °F 44.8 °F 30.06 in Calm     72% 0 in meteobridge W/m2
20:54 53.4 °F 44.6 °F 30.06 in Calm     72% 0 in meteobridge W/m2
20:59 53.2 °F 44.1 °F 30.06 in Calm     71% 0 in meteobridge W/m2
21:04 53.1 °F 43.9 °F 30.06 in Calm     71% 0 in meteobridge W/m2
21:09 53.1 °F 43.9 °F 30.06 in Calm     71% 0 in meteobridge W/m2
21:14 52.9 °F 43.7 °F 30.07 in Calm     71% 0 in meteobridge W/m2
21:19 52.5 °F 43.3 °F 30.07 in Calm     71% 0 in meteobridge W/m2
21:24 52.5 °F 43.3 °F 30.07 in Calm     71% 0 in meteobridge W/m2
21:29 52.3 °F 42.8 °F 30.07 in Calm     70% 0 in meteobridge W/m2
21:34 52.3 °F 42.8 °F 30.07 in Calm     70% 0 in meteobridge W/m2
21:39 52.2 °F 42.3 °F 30.07 in Calm     69% 0 in meteobridge W/m2
21:44 52.2 °F 42.3 °F 30.07 in Calm     69% 0 in meteobridge W/m2
21:49 52 °F 42.1 °F 30.07 in Calm     69% 0 in meteobridge W/m2
21:54 52 °F 42.1 °F 30.08 in Calm     69% 0 in meteobridge W/m2
21:59 51.8 °F 41.9 °F 30.08 in Calm     69% 0 in meteobridge W/m2
22:04 51.6 °F 41.4 °F 30.08 in Calm     68% 0 in meteobridge W/m2
22:09 51.6 °F 41.4 °F 30.08 in Calm     68% 0 in meteobridge W/m2
22:14 51.6 °F 41.4 °F 30.08 in Calm     68% 0 in meteobridge W/m2
22:19 51.4 °F 41.2 °F 30.08 in Calm     68% 0 in meteobridge W/m2
22:24 51.4 °F 41.2 °F 30.08 in Calm     68% 0 in meteobridge W/m2
22:29 51.3 °F 40.6 °F 30.09 in Calm     67% 0 in meteobridge W/m2
22:34 51.3 °F 40.6 °F 30.09 in Calm     67% 0 in meteobridge W/m2
22:39 51.4 °F 40.8 °F 30.09 in Calm     67% 0 in meteobridge W/m2
22:44 51.3 °F 40.6 °F 30.09 in Calm     67% 0 in meteobridge W/m2
22:49 51.3 °F 40.3 °F 30.09 in Calm     66% 0 in meteobridge W/m2
22:54 51.4 °F 40.5 °F 30.09 in Calm     66% 0 in meteobridge W/m2
22:59 51.4 °F 40.5 °F 30.09 in Calm     66% 0 in meteobridge W/m2
23:04 51.4 °F 40.5 °F 30.10 in Calm     66% 0 in meteobridge W/m2
23:09 51.6 °F 40.6 °F 30.10 in Calm     66% 0 in meteobridge W/m2
23:14 51.6 °F 40.3 °F 30.09 in Calm     65% 0 in meteobridge W/m2
23:19 51.8 °F 40.5 °F 30.09 in Calm     65% 0 in meteobridge W/m2
23:24 52 °F 40.6 °F 30.09 in Calm     65% 0 in meteobridge W/m2
23:29 52 °F 40.6 °F 30.09 in Calm     65% 0 in meteobridge W/m2
23:34 52 °F 40.6 °F 30.09 in Calm     65% 0 in meteobridge W/m2
23:39 52 °F 40.6 °F 30.09 in Calm     65% 0 in meteobridge W/m2
23:44 52 °F 40.6 °F 30.09 in Calm     65% 0 in meteobridge W/m2
23:49 52.2 °F 40.8 °F 30.09 in Calm     65% 0 in meteobridge W/m2
23:54 52.2 °F 40.8 °F 30.09 in Calm     65% 0 in meteobridge W/m2
23:59 52 °F 40.6 °F 30.09 in Calm     65% 0 in meteobridge W/m2
EllijayWeather
Compliments of Weather Underground - 2.5 mb